[[{"header":{"parameterUnit":"m.s-1","parameterCategory":1,"la1":30.2991,"la2":30.254,"lo1":-89.0895,"lo2":-89.0444,"dy":0.0017,"dx":0.0017,"nx":28,"ny":28,"refTime":"2024-05-31T09:00:00:Z","depth":0,"parameterNumber":2,"parameterNumberName":"U-component_of_WINDS"},"data":[0,0,0,0,0,0,0,0,0,0,0,0,0,0,0,0,0,0,0,0,0,0,0,0,0,0,0,0,0,0,0,0,0,0,0,0,0,0,0,0,0,0,0,0,0,0,0,0,0,0,0,0,0,0,0,0,0,0,-2.2801,-2.2802,0,-2.2863,-2.2863,-2.2864,-2.2878,-2.2877,-2.2877,-2.2876,-2.2945,-2.2947,-2.2949,0,0,0,0,0,0,0,0,0,0,0,0,0,-2.2702,-2.2704,-2.2801,-2.2802,-2.2803,-2.2863,-2.2863,-2.2864,-2.2878,-2.2877,-2.2877,-2.2876,-2.2944,-2.2947,-2.2949,0,0,0,0,0,0,0,0,0,0,0,0,0,-2.2753,-2.2704,-2.2801,-2.2816,-2.2818,-2.2862,-2.2863,-2.2865,-2.2878,-2.2877,-2.2876,-2.2876,-2.2943,-2.2946,-2.295,-2.2984,0,0,-2.296,-2.2962,0,0,0,0,0,0,0,0,-2.275,-2.2756,-2.2813,-2.2815,-2.2818,-2.2862,-2.2854,-2.2905,-2.2878,-2.2855,-2.2876,-2.2876,-2.2918,-2.2923,-2.2937,-2.2988,-2.2991,-2.296,-2.2962,-2.2964,-2.2965,0,0,0,0,0,0,0,-2.2746,-2.2754,-2.2826,-2.2814,-2.2817,-2.2823,-2.2829,-2.2863,-2.289,-2.2857,-2.2858,-2.2865,-2.2919,-2.2933,-2.2938,-2.2992,-2.296,-2.2963,-2.2965,-2.2967,-2.3078,-2.3079,0,0,0,0,0,0,-2.2739,-2.2751,-2.2824,-2.2827,-2.2781,-2.2825,-2.2832,-2.2848,-2.289,-2.2895,-2.2866,-2.2866,-2.2928,-2.2934,-2.2941,-2.2986,-2.2964,-2.2967,-2.2969,-2.3077,-2.3078,-2.3079,0,0,0,0,0,0,-2.2737,-2.2745,-2.2821,-2.2789,-2.2799,-2.2827,-2.2846,-2.285,-2.2864,-2.2896,-2.2901,-2.2875,-2.2928,-2.2936,-2.2974,-2.2988,-2.2969,-2.2972,-2.3076,-2.3077,-2.3078,-2.3075,0,0,0,0,0,0,-2.2734,-2.2745,-2.2756,-2.2789,-2.2801,-2.2851,-2.2846,-2.2852,-2.2869,-2.287,-2.2906,-2.2911,-2.2928,-2.2969,-2.2977,-2.2993,-2.2974,-2.3075,-2.3076,-2.3078,-2.3074,-2.3076,-2.3078,0,0,0,0,0,-2.273,-2.2753,-2.2756,-2.2765,-2.2816,-2.2851,-2.2858,-2.2875,-2.287,-2.2884,-2.2905,-2.291,-2.2985,-2.2972,-2.2982,-2.2999,-2.3074,-2.3076,-2.3078,-2.3073,-2.3076,-2.3078,0,0,0,0,0,0,-2.2722,-2.2758,-2.2762,-2.2796,-2.282,-2.2854,-2.287,-2.2877,-2.2905,-2.2904,-2.2926,-2.2934,-2.2971,-2.2989,-2.2974,-2.3036,-2.303,-2.3034,-2.3023,-2.3026,-2.3028,-2.3023,-2.2977,0,0,0,0,0,-2.2724,-2.2748,-2.2779,-2.2806,-2.2818,-2.2842,-2.2858,-2.2869,-2.2896,-2.2907,-2.2931,-2.2959,-2.2989,-2.3008,-2.3038,-2.3077,-2.3087,-2.3094,-2.3096,-2.3097,-2.3101,-2.3126,-2.313,-2.3086,-2.3086,-2.3086,0,0,-2.2728,-2.2751,-2.2765,-2.2805,-2.2825,-2.2852,-2.2851,-2.2878,-2.2899,-2.2912,-2.2949,-2.2968,-2.3001,-2.304,-2.3058,-2.3056,-2.3115,-2.31,-2.3101,-2.3103,-2.3128,-2.3132,-2.3136,-2.3087,-2.3087,-2.3087,0,0,-2.275,-2.2769,-2.2794,-2.2815,-2.2845,-2.2862,-2.2868,-2.2901,-2.2914,-2.2951,-2.2961,-2.2988,-2.3039,-2.3062,-2.3081,-2.3115,-2.3123,-2.3125,-2.3135,-2.3159,-2.3162,-2.3166,-2.3179,-2.3184,-2.3128,-2.3128,-2.3128,0,-2.2752,-2.2791,-2.2807,-2.2835,-2.2853,-2.2865,-2.2893,-2.2913,-2.2952,-2.2966,-2.2962,-2.3028,-2.3051,-2.3097,-2.3105,-2.3119,-2.3129,-2.312,-2.316,-2.3164,-2.3167,-2.318,-2.3185,-2.3128,-2.3128,-2.3128,-2.3128,0,-2.2793,-2.282,-2.2837,-2.2874,-2.2894,-2.2922,-2.2945,-2.2964,-2.2974,-2.2992,-2.3032,-2.306,-2.3096,-2.3108,-2.3118,-2.3157,-2.3155,-2.3155,-2.3149,-2.3171,-2.3184,-2.3189,-2.3128,-2.3128,-2.3128,-2.3128,0,0,-2.281,-2.2856,-2.2862,-2.288,-2.2916,-2.2938,-2.2968,-2.3002,-2.3019,-2.3047,-2.3074,-2.3118,-2.312,-2.3141,-2.3155,-2.3176,-2.3204,-2.3175,-2.3176,-2.318,-2.325,-2.325,-2.3255,-2.3209,-2.321,-2.3211,-2.3248,0,-2.2837,-2.2887,-2.2904,-2.2947,-2.2974,-2.2987,-2.3014,-2.304,-2.3058,-2.3086,-2.3107,-2.3138,-2.3137,-2.315,-2.3172,-2.3195,-2.3218,-2.3193,-2.3237,-2.3238,-2.3228,-2.3262,-2.3261,-2.3295,-2.3253,-2.3254,-2.3255,0,-2.2874,-2.2901,-2.2947,-2.2981,-2.2993,-2.3016,-2.3051,-2.3076,-2.3108,-2.312,-2.3144,-2.3157,-2.3192,-2.3184,-2.3234,-2.3216,-2.3236,-2.3251,-2.3253,-2.3258,-2.3248,-2.3269,-2.3306,-2.3311,-2.3263,-2.3262,-2.3262,0,-2.2884,-2.2932,-2.2966,-2.2981,-2.3021,-2.3038,-2.3056,-2.3087,-2.3107,-2.3138,-2.3152,-2.3187,-2.3207,-2.3235,-2.3258,-2.325,-2.3307,-2.33,-2.332,-2.332,-2.3331,-2.333,-2.3373,-2.3343,-2.3343,-2.3343,-2.3342,0,-2.2912,-2.294,-2.2971,-2.2992,-2.3024,-2.3045,-2.3078,-2.3097,-2.3125,-2.3152,-2.3167,-2.3192,-2.3221,-2.3251,-2.327,-2.331,-2.3318,-2.3331,-2.3336,-2.333,-2.3329,-2.3343,-2.3342,-2.3344,-2.3344,-2.3343,-2.3343,0,-2.2928,-2.2949,-2.2988,-2.3023,-2.3033,-2.3056,-2.3088,-2.311,-2.313,-2.3164,-2.3174,-2.3205,-2.3242,-2.3268,-2.3315,-2.3328,-2.3372,-2.3376,-2.336,-2.3363,-2.3382,-2.338,-2.3435,-2.3445,-2.3407,-2.3408,-2.3408,0,-2.2945,-2.2967,-2.3005,-2.3023,-2.3041,-2.307,-2.3091,-2.3114,-2.3135,-2.3174,-2.3193,-2.323,-2.3262,-2.3321,-2.3349,-2.3387,-2.3393,-2.341,-2.3399,-2.3393,-2.3395,-2.3394,-2.3397,-2.3411,-2.3412,-2.3412,-2.3412,0,-2.2974,-2.2984,-2.3012,-2.3045,-2.3069,-2.3096,-2.3124,-2.3139,-2.3167,-2.3191,-2.3228,-2.3252,-2.3301,-2.3339,-2.338,-2.3402,-2.3413,-2.3415,-2.3422,-2.3417,-2.3408,-2.3414,-2.3366,-2.3414,-2.3414,-2.3414,-2.3414,-2.3414,-2.2992,-2.3012,-2.3043,-2.3075,-2.3098,-2.3124,-2.3147,-2.3169,-2.32,-2.324,-2.3252,-2.3292,-2.3326,-2.3382,-2.3404,-2.3438,-2.3437,-2.3446,-2.3449,-2.3451,-2.3452,-2.3402,-2.3445,-2.3445,-2.3445,-2.3445,-2.3445,0,-2.3023,-2.3043,-2.3072,-2.311,-2.3136,-2.3142,-2.3174,-2.3196,-2.3229,-2.3259,-2.329,-2.3334,-2.3372,-2.3404,-2.3444,-2.3465,-2.3471,-2.3475,-2.3474,-2.3479,-2.3449,-2.344,-2.3469,-2.3469,-2.3469,-2.3469,-2.3469,-2.3469,-2.3042,-2.3077,-2.3091,-2.314,-2.3161,-2.3198,-2.3216,-2.3241,-2.3265,-2.3313,-2.3344,-2.3364,-2.3397,-2.3439,-2.3476,-2.3484,-2.3499,-2.3502,-2.3512,-2.3484,-2.3481,-2.3478,-2.347,-2.3505,-2.3505,-2.354,-2.354,-2.354]},{"header":{"parameterUnit":"m.s-1","parameterCategory":1,"la1":30.2991,"la2":30.254,"lo1":-89.0895,"lo2":-89.0444,"dy":0.0017,"dx":0.0017,"nx":28,"ny":28,"refTime":"2024-05-31T09:00:00:Z","depth":0,"parameterNumber":3,"parameterNumberName":"V-component_of_WINDS"},"data":[0,0,0,0,0,0,0,0,0,0,0,0,0,0,0,0,0,0,0,0,0,0,0,0,0,0,0,0,0,0,0,0,0,0,0,0,0,0,0,0,0,0,0,0,0,0,0,0,0,0,0,0,0,0,0,0,0,0,6.5717,6.572,0,6.5966,6.5969,6.5972,6.6005,6.6002,6.6,6.5998,6.6253,6.6262,6.6271,0,0,0,0,0,0,0,0,0,0,0,0,0,6.5269,6.5277,6.5717,6.572,6.5723,6.5966,6.5969,6.5973,6.6005,6.6002,6.6,6.5997,6.625,6.6261,6.6271,0,0,0,0,0,0,0,0,0,0,0,0,0,6.5485,6.528,6.5716,6.5769,6.5776,6.5965,6.5969,6.5973,6.6006,6.6002,6.5999,6.5995,6.6246,6.626,6.6273,6.6427,0,0,6.6314,6.632,0,0,0,0,0,0,0,0,6.5473,6.5502,6.5758,6.5766,6.5774,6.5951,6.5905,6.6126,6.6007,6.5919,6.5998,6.5994,6.6155,6.6176,6.6231,6.6439,6.645,6.6315,6.6323,6.6329,6.6333,0,0,0,0,0,0,0,6.5458,6.5491,6.5816,6.5762,6.5771,6.578,6.5806,6.5947,6.6054,6.5926,6.5929,6.5958,6.6159,6.6217,6.6237,6.6454,6.6315,6.6327,6.6335,6.634,6.6801,6.6804,0,0,0,0,0,0,6.5433,6.5478,6.5808,6.5823,6.5612,6.579,6.582,6.5898,6.6052,6.6072,6.5961,6.5959,6.6196,6.6221,6.6246,6.6436,6.6329,6.6342,6.635,6.6796,6.6801,6.6806,0,0,0,0,0,0,6.5424,6.5462,6.5798,6.5652,6.5695,6.5802,6.5888,6.5904,6.5963,6.6079,6.6098,6.6001,6.6194,6.6227,6.6382,6.6446,6.6348,6.636,6.6792,6.6798,6.6804,6.6819,0,0,0,0,0,0,6.5411,6.5459,6.5519,6.5653,6.5703,6.593,6.5892,6.5912,6.5986,6.5986,6.6121,6.6141,6.6194,6.6361,6.6395,6.6463,6.6371,6.6786,6.6794,6.6802,6.6813,6.6825,6.6834,0,0,0,0,0,6.5395,6.5513,6.5522,6.5561,6.578,6.5933,6.5962,6.6021,6.5991,6.6052,6.6126,6.6136,6.6433,6.6377,6.6415,6.6488,6.6783,6.6792,6.6801,6.6808,6.6822,6.6834,0,0,0,0,0,0,6.5384,6.5532,6.5543,6.5708,6.5808,6.5938,6.6017,6.6034,6.6144,6.6139,6.6208,6.6238,6.639,6.6454,6.6389,6.6645,6.6605,6.6622,6.6597,6.6612,6.6622,6.6604,6.6382,0,0,0,0,0,6.5401,6.5513,6.5636,6.577,6.582,6.591,6.5979,6.6016,6.6122,6.6164,6.6249,6.6352,6.6468,6.6543,6.6657,6.6822,6.6852,6.6891,6.6901,6.691,6.6924,6.7016,6.7035,6.6836,6.6836,6.6836,0,0,6.5437,6.5531,6.5598,6.577,6.5852,6.5966,6.5945,6.6067,6.6153,6.6183,6.6334,6.64,6.6519,6.6679,6.6754,6.6738,6.6985,6.6922,6.6927,6.6938,6.7027,6.7046,6.7063,6.6843,6.6842,6.6841,0,0,6.5561,6.5644,6.5765,6.5847,6.597,6.603,6.6058,6.6187,6.6232,6.6385,6.6409,6.6512,6.6711,6.6794,6.6863,6.7018,6.7031,6.7052,6.7109,6.7198,6.7214,6.7228,6.7283,6.7302,6.7066,6.7066,6.7066,0,6.559,6.5764,6.5825,6.5946,6.6021,6.6053,6.6175,6.6252,6.6406,6.6457,6.6436,6.6686,6.6768,6.6949,6.6986,6.7041,6.7076,6.7038,6.7206,6.7221,6.7235,6.7289,6.7309,6.7068,6.7068,6.7068,6.7068,0,6.5794,6.5914,6.5997,6.6145,6.6229,6.635,6.6429,6.6506,6.6536,6.6596,6.6751,6.6851,6.6985,6.703,6.706,6.7215,6.7201,6.7192,6.7154,6.7255,6.7306,6.7327,6.7071,6.707,6.707,6.7069,0,0,6.592,6.6099,6.6128,6.6196,6.6334,6.6428,6.655,6.6681,6.6746,6.6851,6.6956,6.7123,6.7116,6.7193,6.7233,6.731,6.7427,6.7293,6.7296,6.7314,6.7603,6.7609,6.7632,6.7436,6.744,6.7443,6.7593,0,6.606,6.628,6.6337,6.6524,6.6635,6.6666,6.6773,6.6869,6.6929,6.7032,6.7098,6.7216,6.7197,6.7244,6.7322,6.7396,6.7486,6.7386,6.7534,6.7538,6.7503,6.7659,6.7666,6.7802,6.7614,6.7617,6.762,0,6.6254,6.6363,6.656,6.6683,6.6732,6.6827,6.6952,6.705,6.7159,6.7197,6.7283,6.7315,6.7444,6.7398,6.7575,6.7506,6.757,6.7615,6.7622,6.7638,6.7585,6.768,6.7848,6.7868,6.7652,6.7649,6.7647,0,6.6326,6.6522,6.6665,6.6722,6.6869,6.6935,6.6999,6.7105,6.718,6.7288,6.7338,6.7459,6.7526,6.762,6.7684,6.7644,6.7856,6.7816,6.7891,6.789,6.7935,6.7932,6.8116,6.7975,6.7975,6.7975,6.7974,0,6.6477,6.6597,6.6699,6.6788,6.6922,6.6987,6.7118,6.7183,6.7277,6.7378,6.7412,6.7507,6.7585,6.769,6.774,6.788,6.791,6.7944,6.7956,6.7942,6.7937,6.7985,6.7977,6.798,6.7979,6.7978,6.7977,0,6.6581,6.6654,6.6813,6.6939,6.6973,6.7067,6.7175,6.7262,6.7322,6.745,6.7483,6.7579,6.7704,6.7776,6.7934,6.7968,6.8123,6.813,6.8086,6.8091,6.8163,6.8156,6.8385,6.8419,6.8255,6.8256,6.8257,0,6.6673,6.6766,6.6902,6.6972,6.7037,6.715,6.7226,6.7293,6.7371,6.7502,6.7573,6.7699,6.7805,6.8003,6.8086,6.8207,6.8218,6.829,6.8236,6.8219,6.822,6.8214,6.8223,6.8299,6.8301,6.8302,6.8303,0,6.6829,6.686,6.6969,6.7091,6.7181,6.728,6.7378,6.7434,6.7516,6.7602,6.773,6.7812,6.7973,6.8098,6.8226,6.8292,6.8312,6.8319,6.8343,6.8329,6.83,6.8317,6.8111,6.8314,6.8313,6.8312,6.8311,6.8311,6.693,6.7014,6.7122,6.7242,6.7323,6.7414,6.7501,6.7573,6.7681,6.7817,6.7849,6.7984,6.809,6.8263,6.8332,6.8438,6.8426,6.8461,6.847,6.8478,6.848,6.8282,6.8462,6.8462,6.8461,6.8461,6.8461,0,6.7088,6.7159,6.7269,6.7405,6.7499,6.7509,6.7618,6.7696,6.7814,6.7911,6.8014,6.8161,6.8283,6.8375,6.8499,6.8567,6.8579,6.8597,6.8593,6.8608,6.8484,6.8451,6.8585,6.8585,6.8585,6.8585,6.8585,6.8585,6.7181,6.7323,6.7367,6.755,6.762,6.7752,6.7814,6.7897,6.7975,6.8138,6.8239,6.8298,6.8394,6.8526,6.8638,6.8662,6.8706,6.8723,6.8749,6.8631,6.8617,6.8604,6.8574,6.8732,6.8732,6.8865,6.8866,6.8867]}]]